Flag for Reunion (French) Weather past 2 weeks in Saint-Denis, Reunion (French)

Now
84 °F

Passing clouds.


Feels Like: 92 °F
Forecast: 73 / 83 °F
Wind: 17 mph from East

Location: Saint-Denis / Gillot

Current Time: Apr 27, 2015 at 3:22:41 PM

Latest Report: Apr 27, 2015 at 3:00 PM


Visibility: N/A

Pressure: 29.86 "Hg

Humidity: 74%

Dew point: 75 °F

Location of Saint-DenisLocation

Historic Weather in Saint-Denis — Graph

°F

Saint-Denis temperature yesterday

Maximum temperature yesterday: 88 °F (at 2:00 PM)
Minimum temperature yesterday: 73 °F (at 7:00 AM)
Average temperature yesterday: 80 °F

Past Weeks' High & Low Weather Summary

 TemperatureHumidityPressure
High88 °F (Apr 19, 1:00 PM)89% (Apr 18, 6:30 PM)30.09 "Hg (Apr 18, 6:30 PM)
Low70 °F (Apr 13, 2:30 AM)51% (Apr 13, 10:00 AM)29.83 "Hg (Apr 15, 4:30 AM)
Average79 °F71%29.99 "Hg
* Reported Apr 12 2:00 PM — Apr 27 2:00 PM, Saint-Denis, Weather by CustomWeather, © 2015

Note: Actual official high and low records may vary slightly from our data, if they occured in-between our weather recording intervals... More about our weather records

Advertising

Saint-Denis weather history for previous 24 hours

 ConditionsComfort  
Time TempWeatherWind HumidityBarometerVisibility
2:00 PM
Mon, Apr 27
84 °FPassing clouds.16 mph74%29.89 "HgN/A
1:30 PM84 °FScattered clouds.18 mph70%29.89 "HgN/A
1:00 PM86 °FScattered clouds.20 mph70%29.89 "HgN/A
12:30 PM86 °FPassing clouds.20 mph66%29.89 "HgN/A
12:00 PM86 °FPassing clouds.20 mph70%29.92 "HgN/A
11:30 AM86 °FPassing clouds.16 mph66%29.92 "HgN/A
11:00 AM86 °FScattered clouds.17 mph66%29.95 "HgN/A
10:30 AM86 °FPassing clouds.16 mph66%29.95 "HgN/A
10:00 AM86 °FScattered clouds.13 mph62%29.95 "HgN/A
9:30 AM86 °FScattered clouds.10 mph62%29.98 "HgN/A
9:00 AM84 °FScattered clouds.8 mph62%29.98 "HgN/A
8:30 AM82 °FScattered clouds.8 mph66%29.95 "HgN/A
8:00 AM81 °FScattered showers. Broken clouds.7 mph70%29.95 "HgN/A
7:00 AM77 °FScattered showers. Broken clouds.8 mph79%29.95 "HgN/A
6:30 AM77 °FScattered showers. Broken clouds.9 mph79%29.92 "HgN/A
6:00 AM77 °FScattered showers. Broken clouds.10 mph79%29.92 "HgN/A
5:30 AM77 °FPassing clouds.2 mph79%29.92 "HgN/A
5:00 AM77 °FPassing clouds.6 mph79%29.92 "HgN/A
4:30 AM77 °FPartly cloudy.7 mph79%29.92 "HgN/A
4:00 AM77 °FOvercast.7 mph79%29.92 "HgN/A
3:30 AM77 °FOvercast.8 mph79%29.92 "HgN/A
3:00 AM77 °FOvercast.10 mph79%29.92 "HgN/A
2:30 AM77 °FMostly cloudy.8 mph79%29.95 "HgN/A
2:00 AM77 °FMostly cloudy.12 mph79%29.95 "HgN/A
1:30 AM77 °FPassing clouds.8 mph74%29.95 "HgN/A
1:00 AM79 °FPassing clouds.12 mph70%29.95 "HgN/A
12:30 AM77 °FPartly cloudy.8 mph74%29.95 "HgN/A
12:00 AM77 °FWarm.8 mph79%29.95 "HgN/A
11:30 PM
Sun, Apr 26
77 °FWarm.13 mph79%29.95 "HgN/A
11:00 PM77 °FClear.12 mph79%29.95 "HgN/A
10:30 PM79 °FClear.7 mph74%29.95 "HgN/A
10:00 PM79 °FClear.8 mph74%29.95 "HgN/A
9:30 PM77 °FClear.10 mph79%29.95 "HgN/A
9:00 PM77 °FClear.5 mph74%29.95 "HgN/A
8:30 PM77 °FClear.No wind74%29.95 "HgN/A
8:00 PM77 °FClear.8 mph74%29.95 "HgN/A
7:30 PM79 °FClear.13 mph74%29.92 "HgN/A
7:00 PM79 °FClear.13 mph70%29.92 "HgN/A
6:30 PM79 °FClear.14 mph74%29.92 "HgN/A
6:00 PM81 °FClear.15 mph70%29.92 "HgN/A
5:30 PM81 °FPassing clouds.15 mph70%29.92 "HgN/A
5:00 PM82 °FPassing clouds.17 mph66%29.89 "HgN/A
4:30 PM82 °FScattered clouds.16 mph70%29.89 "HgN/A
4:00 PM84 °FScattered clouds.18 mph62%29.89 "HgN/A
3:30 PM86 °FScattered clouds.16 mph59%29.89 "HgN/A
3:00 PM86 °FScattered clouds.14 mph55%29.92 "HgN/A
Weather by CustomWeather, © 2015

See weather overviewHow to use our weather pages